User: anonymous
Location: Columbia
(38.9520°N, 92.3340°W)
Time: 17:07:40
(UTC-05:00)
Language:

FENGYUN 3A - Orbit

View from above orbital plane
View from above orbital plane
View from above satellite
View from above satellite

Ground track
Ground track

The orbit data is extracted from the following two-line orbital elements,

1 32958U 08026A   14113.28697536  .00000153  00000-0  92746-4 0  9192
2 32958 098.5596 173.9606 0009998 020.1601 339.9970 14.19439289306052
Epoch (UTC): 23 April 2014 06:53:14
Eccentricity: 0.0009998
inclination: 98.5596°
perigee height: 820 km
apogee height: 834 km
right ascension of ascending node: 173.9606°
argument of perigee: 20.1601°
revolutions per day: 14.19439289
mean anomaly at epoch: 339.9970°
orbit number at epoch: 30605

The dashed part of the orbit path shows where the satellite is in the earth's shadow,  

DLR